When you browse on this site, cookies collect data to enhance your experience and personalize the content and advertising you see.
Visit our Privacy Policy to learn more. By continuing to use the site, you agree to this use of cookies and data.
  • In Denmark
  • List of Countries
  • For 7 days
  • Water Temperature
  • Satellite Maps
  • Weather Map
  • Weather Widgets
  • user-avatar
    Login

    Hourly Weather Etchmiadzin

    Today, 17 July, Wednesday

    Time Temperature Precipitation Wind Pressure Humidity
    00:00 +24°C° 0 mm 3 mps 682 mmHg 50%
    01:00 +24°C° 0 mm 3 mps 682 mmHg 52%
    02:00 +22°C° 0 mm 3 mps 682 mmHg 54%
    03:00 +21°C° 0 mm 2 mps 681 mmHg 57%
    04:00 +23°C° 0 mm 2 mps 681 mmHg 56%
    05:00 +23°C° 0 mm 2 mps 682 mmHg 55%
    06:00 +24°C° 0 mm 2 mps 682 mmHg 53%
    07:00 +26°C° 0 mm 2 mps 682 mmHg 48%
    08:00 +28°C° 0 mm 2 mps 682 mmHg 43%
    09:00 +30°C° 0 mm 1 mps 682 mmHg 38%
    10:00 +32°C° 0 mm 2 mps 682 mmHg 34%
    11:00 +34°C° 0 mm 2 mps 682 mmHg 30%
    12:00 +36°C° 0 mm 2 mps 683 mmHg 26%
    13:00 +37°C° 0 mm 3 mps 682 mmHg 24%
    14:00 +37°C° 0 mm 3 mps 682 mmHg 22%
    15:00 +38°C° 0 mm 3 mps 682 mmHg 20%
    16:00 +38°C° 0 mm 3 mps 682 mmHg 22%
    17:00 +37°C° 0 mm 3 mps 682 mmHg 24%
    18:00 +37°C° 0 mm 2 mps 682 mmHg 25%
    19:00 +34°C° 0 mm 3 mps 682 mmHg 31%
    20:00 +31°C° 0 mm 3 mps 682 mmHg 36%
    21:00 +28°C° 0 mm 4 mps 682 mmHg 41%
    22:00 +27°C° 0 mm 3 mps 682 mmHg 44%
    23:00 +26°C° 0 mm 2 mps 682 mmHg 47%

    Tomorrow, 18 July, Thursday

    Time Temperature Precipitation Wind Pressure Humidity
    00:00 +25°C° 0 mm 2 mps 682 mmHg 50%
    01:00 +25°C° 0 mm 2 mps 682 mmHg 53%
    02:00 +24°C° 0 mm 2 mps 682 mmHg 56%
    03:00 +23°C° 0 mm 1 mps 682 mmHg 58%
    04:00 +24°C° 0 mm 1 mps 682 mmHg 57%
    05:00 +25°C° 0 mm 1 mps 682 mmHg 56%
    06:00 +25°C° 0 mm 1 mps 682 mmHg 55%
    07:00 +27°C° 0 mm 1 mps 683 mmHg 48%
    08:00 +30°C° 0 mm 2 mps 683 mmHg 42%
    09:00 +32°C° 0 mm 2 mps 683 mmHg 35%
    10:00 +34°C° 0 mm 2 mps 683 mmHg 30%
    11:00 +36°C° 0 mm 2 mps 683 mmHg 25%
    12:00 +38°C° 0 mm 3 mps 683 mmHg 20%
    13:00 +38°C° 0 mm 3 mps 683 mmHg 18%
    14:00 +39°C° 0 mm 3 mps 683 mmHg 16%
    15:00 +40°C° 0 mm 3 mps 683 mmHg 14%
    16:00 +40°C° 0 mm 3 mps 683 mmHg 15%
    17:00 +40°C° 0 mm 2 mps 683 mmHg 15%
    18:00 +39°C° 0 mm 2 mps 682 mmHg 16%
    19:00 +36°C° 0 mm 3 mps 683 mmHg 21%
    20:00 +33°C° 0 mm 3 mps 683 mmHg 27%
    21:00 +29°C° 0 mm 3 mps 683 mmHg 33%
    22:00 +28°C° 0 mm 3 mps 683 mmHg 33%
    23:00 +27°C° 0 mm 3 mps 683 mmHg 34%

    Day after tomorrow, 19 July, Friday

    Time Temperature Precipitation Wind Pressure Humidity
    00:00 +25°C° 0 mm 2 mps 683 mmHg 34%
    01:00 +25°C° 0 mm 2 mps 683 mmHg 34%
    02:00 +24°C° 0 mm 2 mps 683 mmHg 35%
    03:00 +23°C° 0 mm 2 mps 683 mmHg 35%
    04:00 +24°C° 0 mm 2 mps 684 mmHg 36%
    05:00 +24°C° 0 mm 2 mps 684 mmHg 37%
    06:00 +25°C° 0 mm 2 mps 684 mmHg 38%
    07:00 +27°C° 0 mm 2 mps 685 mmHg 35%
    08:00 +30°C° 0 mm 2 mps 685 mmHg 32%
    09:00 +33°C° 0 mm 3 mps 686 mmHg 28%
    10:00 +34°C° 0 mm 3 mps 686 mmHg 25%
    11:00 +36°C° 0 mm 3 mps 686 mmHg 21%
    12:00 +37°C° 0 mm 3 mps 686 mmHg 17%
    13:00 +38°C° 0 mm 2 mps 685 mmHg 16%
    14:00 +39°C° 0 mm 2 mps 685 mmHg 14%
    15:00 +39°C° 0 mm 2 mps 685 mmHg 13%
    16:00 +39°C° 0 mm 3 mps 685 mmHg 17%
    17:00 +38°C° 0 mm 3 mps 685 mmHg 21%
    18:00 +37°C° 0 mm 4 mps 685 mmHg 25%
    19:00 +34°C° 0 mm 4 mps 685 mmHg 34%
    20:00 +30°C° 0 mm 4 mps 686 mmHg 42%
    21:00 +28°C° 0 mm 4 mps 686 mmHg 51%
    22:00 +27°C° 0 mm 4 mps 686 mmHg 53%
    23:00 +26°C° 0 mm 4 mps 686 mmHg 55%

    20 July, Saturday

    Time Temperature Precipitation Wind Pressure Humidity
    00:00 +25°C° 0 mm 3 mps 686 mmHg 57%
    01:00 +25°C° 0 mm 3 mps 686 mmHg 59%
    02:00 +24°C° 0 mm 3 mps 686 mmHg 60%
    03:00 +24°C° 0 mm 2 mps 686 mmHg 61%
    04:00 +24°C° 0 mm 2 mps 687 mmHg 60%
    05:00 +25°C° 0 mm 2 mps 687 mmHg 58%
    06:00 +25°C° 0 mm 2 mps 687 mmHg 56%
    07:00 +27°C° 0 mm 2 mps 688 mmHg 51%
    08:00 +29°C° 0 mm 2 mps 688 mmHg 46%
    09:00 +31°C° 0 mm 2 mps 688 mmHg 40%
    10:00 +34°C° 0 mm 2 mps 688 mmHg 36%
    11:00 +36°C° 0 mm 2 mps 688 mmHg 32%
    12:00 +37°C° 0 mm 2 mps 688 mmHg 28%
    13:00 +38°C° 0 mm 3 mps 688 mmHg 26%
    14:00 +40°C° 0 mm 4 mps 688 mmHg 23%
    15:00 +41°C° 0 mm 5 mps 688 mmHg 21%
    16:00 +40°C° 0 mm 5 mps 688 mmHg 25%
    17:00 +39°C° 0 mm 6 mps 688 mmHg 28%
    18:00 +39°C° 0 mm 6 mps 688 mmHg 31%
    19:00 +35°C° 0 mm 6 mps 688 mmHg 38%
    20:00 +33°C° 0 mm 5 mps 688 mmHg 45%
    21:00 +29°C° 0 mm 5 mps 688 mmHg 51%
    22:00 +28°C° 0 mm 4 mps 688 mmHg 53%
    23:00 +27°C° 0 mm 3 mps 688 mmHg 55%

    21 July, Sunday

    Time Temperature Precipitation Wind Pressure Humidity
    00:00 +26°C° 0 mm 2 mps 688 mmHg 57%
    01:00 +26°C° 0 mm 2 mps 688 mmHg 59%
    02:00 +25°C° 0 mm 2 mps 688 mmHg 61%
    03:00 +24°C° 0 mm 2 mps 688 mmHg 63%
    04:00 +25°C° 0 mm 2 mps 688 mmHg 60%
    05:00 +25°C° 0 mm 1 mps 688 mmHg 58%
    06:00 +26°C° 0 mm 1 mps 688 mmHg 56%
    07:00 +28°C° 0 mm 1 mps 688 mmHg 49%
    08:00 +30°C° 0 mm 1 mps 688 mmHg 42%
    09:00 +32°C° 0 mm 1 mps 688 mmHg 35%
    10:00 +35°C° 0 mm 2 mps 688 mmHg 30%
    11:00 +37°C° 0 mm 3 mps 688 mmHg 26%
    12:00 +40°C° 0 mm 4 mps 688 mmHg 21%
    13:00 +41°C° 0 mm 4 mps 688 mmHg 19%
    14:00 +42°C° 0 mm 4 mps 688 mmHg 17%
    15:00 +43°C° 0 mm 5 mps 687 mmHg 16%
    16:00 +42°C° 0 mm 5 mps 687 mmHg 20%
    17:00 +41°C° 0 mm 5 mps 687 mmHg 24%
    18:00 +40°C° 0 mm 6 mps 687 mmHg 28%
    19:00 +37°C° 0 mm 5 mps 687 mmHg 32%
    20:00 +34°C° 0 mm 4 mps 687 mmHg 37%
    21:00 +30°C° 0 mm 3 mps 687 mmHg 41%
    22:00 +29°C° 0 mm 3 mps 686 mmHg 44%
    23:00 +28°C° 0 mm 3 mps 686 mmHg 47%

    22 July, Monday

    Time Temperature Precipitation Wind Pressure Humidity
    00:00 +27°C° 0 mm 2 mps 686 mmHg 50%
    01:00 +26°C° 0 mm 2 mps 685 mmHg 51%
    02:00 +25°C° 0 mm 2 mps 685 mmHg 52%
    03:00 +25°C° 0 mm 2 mps 685 mmHg 53%
    04:00 +25°C° 0 mm 2 mps 685 mmHg 52%
    05:00 +26°C° 0 mm 2 mps 685 mmHg 51%
    06:00 +26°C° 0 mm 1 mps 685 mmHg 50%
    07:00 +29°C° 0 mm 1 mps 685 mmHg 43%
    08:00 +31°C° 0 mm 2 mps 686 mmHg 37%
    09:00 +35°C° 0 mm 2 mps 686 mmHg 31%
    10:00 +37°C° 0 mm 2 mps 686 mmHg 27%
    11:00 +39°C° 0 mm 2 mps 686 mmHg 23%
    12:00 +40°C° 0 mm 2 mps 685 mmHg 20%
    13:00 +41°C° 0 mm 2 mps 685 mmHg 19%
    14:00 +42°C° 0 mm 2 mps 685 mmHg 17%
    15:00 +43°C° 0 mm 1 mps 684 mmHg 16%
    16:00 +43°C° 0 mm 3 mps 684 mmHg 21%
    17:00 +41°C° 0 mm 5 mps 684 mmHg 27%
    18:00 +40°C° 0 mm 7 mps 684 mmHg 32%
    19:00 +36°C° 0 mm 6 mps 684 mmHg 38%
    20:00 +33°C° 0 mm 5 mps 684 mmHg 44%
    21:00 +29°C° 0 mm 4 mps 684 mmHg 49%
    22:00 +28°C° 0 mm 4 mps 684 mmHg 50%
    23:00 +27°C° 0 mm 4 mps 684 mmHg 51%
    Show more